contact:dominique.lefevre@mio.osupytheas.fr, maurice.libes@osupytheas.fr, didier.mallarino@osupytheas.fr
Project:EMSO http://www.emso-fr.org/EMSO-France
Depth: 2436.0 m
Title:EMSO Ligure Ouest : Data MII capteur MICROCAT
DateTime_Computer,Latitude,Longitude,Temperature,Conductivity,Pressure,DateTime_Instrument
DateTime_Computer,Latitude,Longitude,degC,S m-1,dbar,DateTime_Instrument
2023-06-08T00:01:03Z,42.805,6.029,13.3069,4.60125,2470.81,2023-6-08T02:03:17Z
2023-06-08T00:04:06Z,42.805,6.029,13.3099,4.60111,2470.787,2023-6-08T02:06:20Z
2023-06-08T00:07:09Z,42.805,6.029,13.3079,4.60119,2470.81,2023-6-08T02:09:23Z
2023-06-08T00:10:12Z,42.805,6.029,13.3064,4.60117,2470.81,2023-6-08T02:12:26Z
2023-06-08T00:13:15Z,42.805,6.029,13.3070,4.60110,2470.871,2023-6-08T02:15:29Z
2023-06-08T00:16:19Z,42.805,6.029,13.3075,4.60116,2470.824,2023-6-08T02:18:32Z
2023-06-08T00:19:22Z,42.805,6.029,13.3067,4.60122,2470.847,2023-6-08T02:21:35Z
2023-06-08T00:22:25Z,42.805,6.029,13.3060,4.60113,2470.81,2023-6-08T02:24:38Z
2023-06-08T00:25:28Z,42.805,6.029,13.3060,4.60107,2470.824,2023-6-08T02:27:41Z
2023-06-08T00:28:31Z,42.805,6.029,13.3067,4.60114,2470.787,2023-6-08T02:30:44Z
2023-06-08T00:31:34Z,42.805,6.029,13.3069,4.60117,2470.857,2023-6-08T02:33:47Z
2023-06-08T00:34:37Z,42.805,6.029,13.3067,4.60117,2470.81,2023-6-08T02:36:50Z
2023-06-08T00:37:40Z,42.805,6.029,13.3070,4.60114,2470.787,2023-6-08T02:39:54Z
2023-06-08T00:40:43Z,42.805,6.029,13.3076,4.60115,2470.824,2023-6-08T02:42:57Z
2023-06-08T00:43:46Z,42.805,6.029,13.3063,4.60110,2470.787,2023-6-08T02:46:00Z
2023-06-08T00:46:49Z,42.805,6.029,13.3067,4.60117,2470.81,2023-6-08T02:49:03Z
2023-06-08T00:49:52Z,42.805,6.029,13.3058,4.60109,2470.787,2023-6-08T02:52:06Z
2023-06-08T00:52:55Z,42.805,6.029,13.3055,4.60113,2470.8,2023-6-08T02:55:09Z
2023-06-08T00:55:58Z,42.805,6.029,13.3079,4.60124,2470.824,2023-6-08T02:58:12Z
2023-06-08T00:59:02Z,42.805,6.029,13.3058,4.60111,2470.81,2023-6-08T03:01:15Z
2023-06-08T01:02:05Z,42.805,6.029,13.3067,4.60109,2470.824,2023-6-08T03:04:18Z
2023-06-08T01:05:08Z,42.805,6.029,13.3066,4.60110,2470.8,2023-6-08T03:07:21Z
2023-06-08T01:08:11Z,42.805,6.029,13.3071,4.60135,2470.787,2023-6-08T03:10:24Z
2023-06-08T01:11:14Z,42.805,6.029,13.3060,4.60117,2470.8,2023-6-08T03:13:27Z
2023-06-08T01:14:17Z,42.805,6.029,13.3069,4.60117,2470.754,2023-6-08T03:16:30Z
2023-06-08T01:17:20Z,42.805,6.029,13.3056,4.60122,2470.824,2023-6-08T03:19:34Z
2023-06-08T01:20:23Z,42.805,6.029,13.3051,4.60107,2470.787,2023-6-08T03:22:37Z
2023-06-08T01:23:26Z,42.805,6.029,13.3076,4.60111,2470.763,2023-6-08T03:25:40Z
2023-06-08T01:26:29Z,42.805,6.029,13.3062,4.60104,2470.777,2023-6-08T03:28:43Z
2023-06-08T01:29:32Z,42.805,6.029,13.3097,4.60127,2470.777,2023-6-08T03:31:46Z
2023-06-08T01:32:35Z,42.805,6.029,13.3058,4.60106,2470.754,2023-6-08T03:34:49Z
2023-06-08T01:35:39Z,42.805,6.029,13.3063,4.60114,2470.8,2023-6-08T03:37:52Z
2023-06-08T01:38:42Z,42.805,6.029,13.3054,4.60106,2470.763,2023-6-08T03:40:55Z
2023-06-08T01:41:45Z,42.805,6.029,13.3048,4.60114,2470.8,2023-6-08T03:43:58Z
2023-06-08T01:44:48Z,42.805,6.029,13.3051,4.60116,2470.777,2023-6-08T03:47:01Z
2023-06-08T01:47:51Z,42.805,6.029,13.3061,4.60107,2470.74,2023-6-08T03:50:04Z
2023-06-08T01:50:54Z,42.805,6.029,13.3066,4.60120,2470.787,2023-6-08T03:53:07Z
2023-06-08T01:53:57Z,42.805,6.029,13.3040,4.60108,2470.787,2023-6-08T03:56:10Z
2023-06-08T01:57:00Z,42.805,6.029,13.3031,4.60110,2470.74,2023-6-08T03:59:14Z
2023-06-08T02:00:03Z,42.805,6.029,13.3037,4.60118,2470.74,2023-6-08T04:02:17Z
2023-06-08T02:03:06Z,42.805,6.029,13.3051,4.60147,2470.717,2023-6-08T04:05:20Z
2023-06-08T02:06:09Z,42.805,6.029,13.3061,4.60127,2470.717,2023-6-08T04:08:23Z
2023-06-08T02:09:12Z,42.805,6.029,13.3052,4.60122,2470.73,2023-6-08T04:11:26Z
2023-06-08T02:12:15Z,42.805,6.029,13.3070,4.60112,2470.74,2023-6-08T04:14:29Z
2023-06-08T02:15:19Z,42.805,6.029,13.3076,4.60116,2470.73,2023-6-08T04:17:32Z
2023-06-08T02:18:22Z,42.805,6.029,13.3045,4.60125,2470.754,2023-6-08T04:20:35Z
2023-06-08T02:21:25Z,42.805,6.029,13.3038,4.60110,2470.74,2023-6-08T04:23:38Z
2023-06-08T02:24:28Z,42.805,6.029,13.3047,4.60117,2470.763,2023-6-08T04:26:41Z
2023-06-08T02:27:31Z,42.805,6.029,13.3039,4.60119,2470.717,2023-6-08T04:29:44Z
2023-06-08T02:30:34Z,42.805,6.029,13.3032,4.60107,2470.73,2023-6-08T04:32:47Z
2023-06-08T02:33:37Z,42.805,6.029,13.3034,4.60126,2470.717,2023-6-08T04:35:50Z
2023-06-08T02:36:40Z,42.805,6.029,13.3025,4.60119,2470.73,2023-6-08T04:38:54Z
2023-06-08T02:39:43Z,42.805,6.029,13.3050,4.60096,2470.754,2023-6-08T04:41:57Z
2023-06-08T02:42:46Z,42.805,6.029,13.3027,4.60117,2470.73,2023-6-08T04:45:00Z
2023-06-08T02:45:49Z,42.805,6.029,13.3049,4.60112,2470.717,2023-6-08T04:48:03Z
2023-06-08T02:48:52Z,42.805,6.029,13.3028,4.60109,2470.707,2023-6-08T04:51:06Z
2023-06-08T02:51:55Z,42.805,6.029,13.3026,4.60097,2470.707,2023-6-08T04:54:09Z
2023-06-08T02:54:58Z,42.805,6.029,13.3026,4.60089,2470.693,2023-6-08T04:57:12Z
2023-06-08T02:58:02Z,42.805,6.029,13.3021,4.60088,2470.73,2023-6-08T05:00:15Z
2023-06-08T03:01:05Z,42.805,6.029,13.3021,4.60087,2470.684,2023-6-08T05:03:18Z
2023-06-08T03:04:08Z,42.805,6.029,13.3023,4.60087,2470.684,2023-6-08T05:06:21Z
2023-06-08T03:07:11Z,42.805,6.029,13.3026,4.60082,2470.693,2023-6-08T05:09:24Z
2023-06-08T03:10:14Z,42.805,6.029,13.3022,4.60087,2470.707,2023-6-08T05:12:27Z
2023-06-08T03:13:17Z,42.805,6.029,13.3021,4.60091,2470.73,2023-6-08T05:15:30Z
2023-06-08T03:16:20Z,42.805,6.029,13.3021,4.60092,2470.67,2023-6-08T05:18:34Z
2023-06-08T03:19:23Z,42.805,6.029,13.3021,4.60085,2470.707,2023-6-08T05:21:37Z
2023-06-08T03:22:26Z,42.805,6.029,13.3019,4.60089,2470.679,2023-6-08T05:24:40Z
2023-06-08T03:25:29Z,42.805,6.029,13.3023,4.60087,2470.693,2023-6-08T05:27:43Z
2023-06-08T03:28:32Z,42.805,6.029,13.3024,4.60085,2470.707,2023-6-08T05:30:46Z
2023-06-08T03:31:35Z,42.805,6.029,13.3016,4.60083,2470.693,2023-6-08T05:33:49Z
2023-06-08T03:34:39Z,42.805,6.029,13.3021,4.60085,2470.684,2023-6-08T05:36:52Z
2023-06-08T03:37:42Z,42.805,6.029,13.3021,4.60081,2470.67,2023-6-08T05:39:55Z
2023-06-08T03:40:45Z,42.805,6.029,13.3022,4.60087,2470.67,2023-6-08T05:42:58Z
2023-06-08T03:43:48Z,42.805,6.029,13.3019,4.60085,2470.646,2023-6-08T05:46:01Z
2023-06-08T03:46:51Z,42.805,6.029,13.3021,4.60083,2470.67,2023-6-08T05:49:04Z
2023-06-08T03:49:54Z,42.805,6.029,13.3021,4.60082,2470.67,2023-6-08T05:52:07Z
2023-06-08T03:52:57Z,42.805,6.029,13.3022,4.60081,2470.684,2023-6-08T05:55:10Z
2023-06-08T03:56:00Z,42.805,6.029,13.3019,4.60082,2470.67,2023-6-08T05:58:14Z
2023-06-08T03:59:03Z,42.805,6.029,13.3021,4.60086,2470.67,2023-6-08T06:01:17Z
2023-06-08T04:02:06Z,42.805,6.029,13.3021,4.60084,2470.646,2023-6-08T06:04:20Z
2023-06-08T04:05:09Z,42.805,6.029,13.3018,4.60083,2470.646,2023-6-08T06:07:23Z
2023-06-08T04:08:12Z,42.805,6.029,13.3023,4.60091,2470.67,2023-6-08T06:10:26Z
2023-06-08T04:11:15Z,42.805,6.029,13.3019,4.60086,2470.684,2023-6-08T06:13:29Z
2023-06-08T04:14:18Z,42.805,6.029,13.3021,4.60084,2470.646,2023-6-08T06:16:32Z
2023-06-08T04:17:22Z,42.805,6.029,13.3020,4.60082,2470.684,2023-6-08T06:19:35Z
2023-06-08T04:20:25Z,42.805,6.029,13.3023,4.60085,2470.661,2023-6-08T06:22:38Z
2023-06-08T04:23:28Z,42.805,6.029,13.3022,4.60080,2470.67,2023-6-08T06:25:41Z
2023-06-08T04:26:31Z,42.805,6.029,13.3021,4.60081,2470.646,2023-6-08T06:28:44Z
2023-06-08T04:29:34Z,42.805,6.029,13.3019,4.60081,2470.633,2023-6-08T06:31:47Z
2023-06-08T04:32:37Z,42.805,6.029,13.3021,4.60079,2470.637,2023-6-08T06:34:50Z
2023-06-08T04:35:40Z,42.805,6.029,13.3024,4.60080,2470.693,2023-6-08T06:37:54Z
2023-06-08T04:38:43Z,42.805,6.029,13.3021,4.60081,2470.661,2023-6-08T06:40:57Z
2023-06-08T04:41:46Z,42.805,6.029,13.3022,4.60080,2470.684,2023-6-08T06:44:00Z
2023-06-08T04:44:49Z,42.805,6.029,13.3021,4.60081,2470.67,2023-6-08T06:47:03Z
2023-06-08T04:47:52Z,42.805,6.029,13.3021,4.60081,2470.67,2023-6-08T06:50:06Z
2023-06-08T04:50:55Z,42.805,6.029,13.3016,4.60081,2470.624,2023-6-08T06:53:09Z
2023-06-08T04:53:58Z,42.805,6.029,13.3021,4.60081,2470.624,2023-6-08T06:56:12Z
2023-06-08T04:57:01Z,42.805,6.029,13.3025,4.60082,2470.661,2023-6-08T06:59:15Z
2023-06-08T05:00:05Z,42.805,6.029,13.3021,4.60082,2470.646,2023-6-08T07:02:18Z
2023-06-08T05:03:08Z,42.805,6.029,13.3021,4.60079,2470.661,2023-6-08T07:05:21Z
2023-06-08T05:06:11Z,42.805,6.029,13.3021,4.60082,2470.67,2023-6-08T07:08:24Z
2023-06-08T05:09:14Z,42.805,6.029,13.3018,4.60084,2470.624,2023-6-08T07:11:27Z
2023-06-08T05:12:17Z,42.805,6.029,13.3022,4.60084,2470.646,2023-6-08T07:14:30Z
2023-06-08T05:15:20Z,42.805,6.029,13.3024,4.60081,2470.624,2023-6-08T07:17:33Z
2023-06-08T05:18:23Z,42.805,6.029,13.3023,4.60080,2470.646,2023-6-08T07:20:37Z
2023-06-08T05:21:26Z,42.805,6.029,13.3021,4.60081,2470.646,2023-6-08T07:23:40Z
2023-06-08T05:24:29Z,42.805,6.029,13.3020,4.60079,2470.637,2023-6-08T07:26:43Z
2023-06-08T05:27:32Z,42.805,6.029,13.3020,4.60080,2470.661,2023-6-08T07:29:46Z
2023-06-08T05:30:35Z,42.805,6.029,13.3018,4.60079,2470.624,2023-6-08T07:32:49Z
2023-06-08T05:33:38Z,42.805,6.029,13.3022,4.60079,2470.624,2023-6-08T07:35:52Z
2023-06-08T05:36:41Z,42.805,6.029,13.3022,4.60079,2470.624,2023-6-08T07:38:55Z
2023-06-08T05:39:45Z,42.805,6.029,13.3024,4.60079,2470.646,2023-6-08T07:41:58Z
2023-06-08T05:42:48Z,42.805,6.029,13.3020,4.60079,2470.624,2023-6-08T07:45:01Z
2023-06-08T05:45:51Z,42.805,6.029,13.3020,4.60079,2470.646,2023-6-08T07:48:04Z
2023-06-08T05:48:54Z,42.805,6.029,13.3022,4.60079,2470.646,2023-6-08T07:51:07Z
2023-06-08T05:51:57Z,42.805,6.029,13.3020,4.60080,2470.614,2023-6-08T07:54:10Z
2023-06-08T05:55:00Z,42.805,6.029,13.3023,4.60081,2470.637,2023-6-08T07:57:13Z
2023-06-08T05:58:03Z,42.805,6.029,13.3024,4.60082,2470.646,2023-6-08T08:00:17Z
2023-06-08T06:01:06Z,42.805,6.029,13.3024,4.60080,2470.646,2023-6-08T08:03:20Z
2023-06-08T06:04:09Z,42.805,6.029,13.3021,4.60081,2470.624,2023-6-08T08:06:23Z
2023-06-08T06:07:12Z,42.805,6.029,13.3018,4.60079,2470.646,2023-6-08T08:09:26Z
2023-06-08T06:10:15Z,42.805,6.029,13.3019,4.60080,2470.624,2023-6-08T08:12:29Z
2023-06-08T06:13:18Z,42.805,6.029,13.3024,4.60079,2470.637,2023-6-08T08:15:32Z
2023-06-08T06:16:21Z,42.805,6.029,13.3026,4.60079,2470.633,2023-6-08T08:18:35Z
2023-06-08T06:19:25Z,42.805,6.029,13.3021,4.60080,2470.646,2023-6-08T08:21:38Z
2023-06-08T06:22:28Z,42.805,6.029,13.3022,4.60080,2470.637,2023-6-08T08:24:41Z
2023-06-08T06:25:31Z,42.805,6.029,13.3024,4.60082,2470.646,2023-6-08T08:27:44Z
2023-06-08T06:28:34Z,42.805,6.029,13.3021,4.60080,2470.646,2023-6-08T08:30:47Z
2023-06-08T06:31:38Z,42.805,6.029,13.3024,4.60079,2470.661,2023-6-08T08:33:52Z
2023-06-08T06:34:41Z,42.805,6.029,13.3023,4.60080,2470.646,2023-6-08T08:36:55Z
2023-06-08T06:37:44Z,42.805,6.029,13.3020,4.60080,2470.646,2023-6-08T08:39:58Z
2023-06-08T06:40:47Z,42.805,6.029,13.3024,4.60081,2470.646,2023-6-08T08:43:01Z
2023-06-08T06:43:50Z,42.805,6.029,13.3022,4.60080,2470.624,2023-6-08T08:46:04Z
2023-06-08T06:46:54Z,42.805,6.029,13.3021,4.60079,2470.661,2023-6-08T08:49:07Z
2023-06-08T06:49:57Z,42.805,6.029,13.3024,4.60080,2470.646,2023-6-08T08:52:10Z
2023-06-08T06:53:00Z,42.805,6.029,13.3026,4.60081,2470.67,2023-6-08T08:55:13Z
2023-06-08T06:56:03Z,42.805,6.029,13.3022,4.60080,2470.646,2023-6-08T08:58:16Z
2023-06-08T06:59:06Z,42.805,6.029,13.3020,4.60080,2470.646,2023-6-08T09:01:19Z
2023-06-08T07:02:09Z,42.805,6.029,13.3021,4.60079,2470.684,2023-6-08T09:04:22Z
2023-06-08T07:05:12Z,42.805,6.029,13.3026,4.60080,2470.646,2023-6-08T09:07:26Z
2023-06-08T07:08:15Z,42.805,6.029,13.3024,4.60080,2470.661,2023-6-08T09:10:29Z
2023-06-08T07:11:18Z,42.805,6.029,13.3021,4.60080,2470.684,2023-6-08T09:13:32Z
2023-06-08T07:14:21Z,42.805,6.029,13.3020,4.60079,2470.646,2023-6-08T09:16:35Z
2023-06-08T07:17:24Z,42.805,6.029,13.3021,4.60079,2470.693,2023-6-08T09:19:38Z
2023-06-08T07:20:27Z,42.805,6.029,13.3023,4.60080,2470.646,2023-6-08T09:22:41Z
2023-06-08T07:23:30Z,42.805,6.029,13.3020,4.60081,2470.67,2023-6-08T09:25:44Z
2023-06-08T07:26:34Z,42.805,6.029,13.3026,4.60081,2470.67,2023-6-08T09:28:47Z
2023-06-08T07:29:37Z,42.805,6.029,13.3024,4.60084,2470.684,2023-6-08T09:31:50Z
2023-06-08T07:32:40Z,42.805,6.029,13.3021,4.60080,2470.684,2023-6-08T09:34:53Z
2023-06-08T07:35:43Z,42.805,6.029,13.3021,4.60080,2470.67,2023-6-08T09:37:56Z
2023-06-08T07:38:46Z,42.805,6.029,13.3026,4.60081,2470.684,2023-6-08T09:40:59Z
2023-06-08T07:41:49Z,42.805,6.029,13.3023,4.60081,2470.693,2023-6-08T09:44:03Z
2023-06-08T07:44:52Z,42.805,6.029,13.3022,4.60081,2470.67,2023-6-08T09:47:06Z
2023-06-08T07:47:55Z,42.805,6.029,13.3024,4.60079,2470.707,2023-6-08T09:50:09Z
2023-06-08T07:50:58Z,42.805,6.029,13.3020,4.60080,2470.707,2023-6-08T09:53:12Z
2023-06-08T07:54:01Z,42.805,6.029,13.3025,4.60080,2470.73,2023-6-08T09:56:15Z
2023-06-08T07:57:04Z,42.805,6.029,13.3021,4.60080,2470.661,2023-6-08T09:59:18Z
2023-06-08T08:00:07Z,42.805,6.029,13.3025,4.60080,2470.684,2023-6-08T10:02:21Z
2023-06-08T08:03:11Z,42.805,6.029,13.3025,4.60080,2470.693,2023-6-08T10:05:24Z
2023-06-08T08:06:14Z,42.805,6.029,13.3024,4.60080,2470.707,2023-6-08T10:08:27Z
2023-06-08T08:09:17Z,42.805,6.029,13.3022,4.60080,2470.693,2023-6-08T10:11:30Z
2023-06-08T08:12:20Z,42.805,6.029,13.3026,4.60081,2470.707,2023-6-08T10:14:33Z
2023-06-08T08:15:23Z,42.805,6.029,13.3023,4.60080,2470.693,2023-6-08T10:17:36Z
2023-06-08T08:18:26Z,42.805,6.029,13.3024,4.60079,2470.707,2023-6-08T10:20:39Z
2023-06-08T08:21:29Z,42.805,6.029,13.3021,4.60079,2470.717,2023-6-08T10:23:43Z
2023-06-08T08:24:32Z,42.805,6.029,13.3021,4.60080,2470.74,2023-6-08T10:26:46Z
2023-06-08T08:27:35Z,42.805,6.029,13.3026,4.60082,2470.717,2023-6-08T10:29:49Z
2023-06-08T08:30:38Z,42.805,6.029,13.3024,4.60081,2470.693,2023-6-08T10:32:52Z
2023-06-08T08:33:41Z,42.805,6.029,13.3021,4.60079,2470.717,2023-6-08T10:35:55Z
2023-06-08T08:36:44Z,42.805,6.029,13.3024,4.60079,2470.707,2023-6-08T10:38:58Z
2023-06-08T08:39:47Z,42.805,6.029,13.3024,4.60079,2470.717,2023-6-08T10:42:01Z
2023-06-08T08:42:51Z,42.805,6.029,13.3024,4.60080,2470.777,2023-6-08T10:45:04Z
2023-06-08T08:45:54Z,42.805,6.029,13.3022,4.60081,2470.707,2023-6-08T10:48:07Z
2023-06-08T08:48:57Z,42.805,6.029,13.3025,4.60080,2470.693,2023-6-08T10:51:10Z
2023-06-08T08:52:00Z,42.805,6.029,13.3026,4.60081,2470.717,2023-6-08T10:54:13Z
2023-06-08T08:55:03Z,42.805,6.029,13.3024,4.60080,2470.754,2023-6-08T10:57:16Z
2023-06-08T08:58:06Z,42.805,6.029,13.3020,4.60080,2470.74,2023-6-08T11:00:20Z
2023-06-08T09:01:09Z,42.805,6.029,13.3023,4.60080,2470.703,2023-6-08T11:03:23Z
2023-06-08T09:04:12Z,42.805,6.029,13.3022,4.60079,2470.717,2023-6-08T11:06:26Z
2023-06-08T09:07:15Z,42.805,6.029,13.3023,4.60082,2470.754,2023-6-08T11:09:29Z
2023-06-08T09:10:18Z,42.805,6.029,13.3021,4.60080,2470.693,2023-6-08T11:12:32Z
2023-06-08T09:13:21Z,42.805,6.029,13.3019,4.60083,2470.754,2023-6-08T11:15:35Z
2023-06-08T09:16:24Z,42.805,6.029,13.3020,4.60080,2470.73,2023-6-08T11:18:38Z
2023-06-08T09:19:28Z,42.805,6.029,13.3020,4.60080,2470.754,2023-6-08T11:21:41Z
2023-06-08T09:22:31Z,42.805,6.029,13.3022,4.60081,2470.717,2023-6-08T11:24:44Z
2023-06-08T09:25:34Z,42.805,6.029,13.3019,4.60082,2470.754,2023-6-08T11:27:47Z
2023-06-08T09:28:37Z,42.805,6.029,13.3022,4.60084,2470.74,2023-6-08T11:30:50Z
2023-06-08T09:31:40Z,42.805,6.029,13.3021,4.60079,2470.707,2023-6-08T11:33:53Z
2023-06-08T09:34:43Z,42.805,6.029,13.3023,4.60080,2470.693,2023-6-08T11:36:57Z
2023-06-08T09:37:46Z,42.805,6.029,13.3021,4.60081,2470.707,2023-6-08T11:40:00Z
2023-06-08T09:40:49Z,42.805,6.029,13.3024,4.60080,2470.777,2023-6-08T11:43:03Z
2023-06-08T09:43:52Z,42.805,6.029,13.3022,4.60081,2470.717,2023-6-08T11:46:06Z
2023-06-08T09:46:55Z,42.805,6.029,13.3022,4.60080,2470.717,2023-6-08T11:49:09Z
2023-06-08T09:49:58Z,42.805,6.029,13.3021,4.60079,2470.73,2023-6-08T11:52:12Z
2023-06-08T09:53:01Z,42.805,6.029,13.3019,4.60081,2470.74,2023-6-08T11:55:15Z
2023-06-08T09:56:05Z,42.805,6.029,13.3019,4.60083,2470.717,2023-6-08T11:58:18Z
2023-06-08T09:59:08Z,42.805,6.029,13.3020,4.60082,2470.717,2023-6-08T12:01:21Z
2023-06-08T10:02:11Z,42.805,6.029,13.3019,4.60080,2470.717,2023-6-08T12:04:24Z
2023-06-08T10:05:14Z,42.805,6.029,13.3021,4.60081,2470.717,2023-6-08T12:07:27Z
2023-06-08T10:08:17Z,42.805,6.029,13.3025,4.60081,2470.73,2023-6-08T12:10:30Z
2023-06-08T10:11:20Z,42.805,6.029,13.3022,4.60079,2470.717,2023-6-08T12:13:34Z
2023-06-08T10:14:23Z,42.805,6.029,13.3021,4.60080,2470.754,2023-6-08T12:16:37Z
2023-06-08T10:17:26Z,42.805,6.029,13.3024,4.60080,2470.707,2023-6-08T12:19:40Z
2023-06-08T10:20:29Z,42.805,6.029,13.3022,4.60079,2470.703,2023-6-08T12:22:43Z
2023-06-08T10:23:32Z,42.805,6.029,13.3020,4.60083,2470.717,2023-6-08T12:25:46Z
2023-06-08T10:26:35Z,42.805,6.029,13.3019,4.60084,2470.717,2023-6-08T12:28:49Z
2023-06-08T10:29:39Z,42.805,6.029,13.3016,4.60083,2470.693,2023-6-08T12:31:52Z
2023-06-08T10:32:42Z,42.805,6.029,13.3024,4.60079,2470.717,2023-6-08T12:34:55Z
2023-06-08T10:35:45Z,42.805,6.029,13.3024,4.60081,2470.693,2023-6-08T12:37:58Z
2023-06-08T10:38:48Z,42.805,6.029,13.3021,4.60081,2470.693,2023-6-08T12:41:01Z
2023-06-08T10:41:51Z,42.805,6.029,13.3024,4.60080,2470.73,2023-6-08T12:44:04Z
2023-06-08T10:44:54Z,42.805,6.029,13.3028,4.60079,2470.693,2023-6-08T12:47:07Z
2023-06-08T10:47:57Z,42.805,6.029,13.3021,4.60081,2470.67,2023-6-08T12:50:11Z
2023-06-08T10:51:00Z,42.805,6.029,13.3024,4.60084,2470.693,2023-6-08T12:53:14Z
2023-06-08T10:54:03Z,42.805,6.029,13.3022,4.60083,2470.73,2023-6-08T12:56:17Z
2023-06-08T10:57:06Z,42.805,6.029,13.3024,4.60081,2470.693,2023-6-08T12:59:20Z
2023-06-08T11:00:09Z,42.805,6.029,13.3021,4.60080,2470.67,2023-6-08T13:02:23Z
2023-06-08T11:03:12Z,42.805,6.029,13.3021,4.60082,2470.693,2023-6-08T13:05:26Z
2023-06-08T11:06:16Z,42.805,6.029,13.3024,4.60081,2470.67,2023-6-08T13:08:29Z
2023-06-08T11:09:19Z,42.805,6.029,13.3021,4.60081,2470.693,2023-6-08T13:11:32Z
2023-06-08T11:12:22Z,42.805,6.029,13.3024,4.60081,2470.717,2023-6-08T13:14:35Z
2023-06-08T11:15:25Z,42.805,6.029,13.3021,4.60081,2470.67,2023-6-08T13:17:38Z
2023-06-08T11:18:28Z,42.805,6.029,13.3024,4.60083,2470.67,2023-6-08T13:20:41Z
2023-06-08T11:21:31Z,42.805,6.029,13.3022,4.60081,2470.684,2023-6-08T13:23:44Z
2023-06-08T11:24:34Z,42.805,6.029,13.3024,4.60081,2470.707,2023-6-08T13:26:48Z
2023-06-08T11:27:37Z,42.805,6.029,13.3024,4.60081,2470.717,2023-6-08T13:29:51Z
2023-06-08T11:30:40Z,42.805,6.029,13.3021,4.60084,2470.707,2023-6-08T13:32:54Z
2023-06-08T11:33:43Z,42.805,6.029,13.3021,4.60082,2470.693,2023-6-08T13:35:57Z
2023-06-08T11:36:46Z,42.805,6.029,13.3023,4.60083,2470.707,2023-6-08T13:39:00Z
2023-06-08T11:39:49Z,42.805,6.029,13.3021,4.60086,2470.684,2023-6-08T13:42:03Z
2023-06-08T11:42:53Z,42.805,6.029,13.3027,4.60087,2470.693,2023-6-08T13:45:06Z
2023-06-08T11:45:56Z,42.805,6.029,13.3023,4.60080,2470.707,2023-6-08T13:48:09Z
2023-06-08T11:48:59Z,42.805,6.029,13.3025,4.60082,2470.693,2023-6-08T13:51:12Z
2023-06-08T11:52:02Z,42.805,6.029,13.3022,4.60080,2470.684,2023-6-08T13:54:15Z
2023-06-08T11:55:05Z,42.805,6.029,13.3021,4.60081,2470.67,2023-6-08T13:57:18Z
2023-06-08T11:58:08Z,42.805,6.029,13.3024,4.60081,2470.684,2023-6-08T14:00:22Z
2023-06-08T12:01:11Z,42.805,6.029,13.3026,4.60082,2470.684,2023-6-08T14:03:25Z
2023-06-08T12:04:14Z,42.805,6.029,13.3026,4.60084,2470.693,2023-6-08T14:06:28Z
2023-06-08T12:07:17Z,42.805,6.029,13.3020,4.60085,2470.656,2023-6-08T14:09:31Z
2023-06-08T12:10:20Z,42.805,6.029,13.3021,4.60081,2470.67,2023-6-08T14:12:34Z
2023-06-08T12:13:23Z,42.805,6.029,13.3021,4.60082,2470.684,2023-6-08T14:15:37Z
2023-06-08T12:16:26Z,42.805,6.029,13.3021,4.60083,2470.646,2023-6-08T14:18:40Z
2023-06-08T12:19:30Z,42.805,6.029,13.3022,4.60084,2470.67,2023-6-08T14:21:43Z
2023-06-08T12:22:33Z,42.805,6.029,13.3022,4.60081,2470.646,2023-6-08T14:24:46Z
2023-06-08T12:25:36Z,42.805,6.029,13.3024,4.60081,2470.67,2023-6-08T14:27:49Z
2023-06-08T12:28:39Z,42.805,6.029,13.3023,4.60082,2470.656,2023-6-08T14:30:52Z
2023-06-08T12:31:43Z,42.805,6.029,13.3025,4.60088,2470.661,2023-6-08T14:33:56Z
2023-06-08T12:34:46Z,42.805,6.029,13.3024,4.60084,2470.693,2023-6-08T14:37:00Z
2023-06-08T12:37:49Z,42.805,6.029,13.3024,4.60086,2470.646,2023-6-08T14:40:03Z
2023-06-08T12:40:52Z,42.805,6.029,13.3024,4.60082,2470.67,2023-6-08T14:43:06Z
2023-06-08T12:43:55Z,42.805,6.029,13.3026,4.60079,2470.624,2023-6-08T14:46:09Z
2023-06-08T12:46:58Z,42.805,6.029,13.3024,4.60083,2470.67,2023-6-08T14:49:12Z
2023-06-08T12:50:01Z,42.805,6.029,13.3024,4.60081,2470.624,2023-6-08T14:52:15Z
2023-06-08T12:53:04Z,42.805,6.029,13.3026,4.60081,2470.661,2023-6-08T14:55:18Z
2023-06-08T12:56:08Z,42.805,6.029,13.3023,4.60082,2470.646,2023-6-08T14:58:21Z
2023-06-08T12:59:11Z,42.805,6.029,13.3020,4.60080,2470.661,2023-6-08T15:01:24Z
2023-06-08T13:02:14Z,42.805,6.029,13.3024,4.60084,2470.656,2023-6-08T15:04:27Z
2023-06-08T13:05:17Z,42.805,6.029,13.3022,4.60082,2470.707,2023-6-08T15:07:30Z
2023-06-08T13:08:20Z,42.805,6.029,13.3023,4.60081,2470.661,2023-6-08T15:10:33Z
2023-06-08T13:11:23Z,42.805,6.029,13.3029,4.60081,2470.67,2023-6-08T15:13:36Z
2023-06-08T13:14:26Z,42.805,6.029,13.3021,4.60084,2470.646,2023-6-08T15:16:40Z
2023-06-08T13:17:29Z,42.805,6.029,13.3022,4.60098,2470.646,2023-6-08T15:19:43Z
2023-06-08T13:20:32Z,42.805,6.029,13.3025,4.60101,2470.646,2023-6-08T15:22:46Z
2023-06-08T13:23:35Z,42.805,6.029,13.3025,4.60090,2470.646,2023-6-08T15:25:49Z
2023-06-08T13:26:38Z,42.805,6.029,13.3024,4.60089,2470.661,2023-6-08T15:28:52Z
2023-06-08T13:29:41Z,42.805,6.029,13.3024,4.60085,2470.624,2023-6-08T15:31:55Z
2023-06-08T13:32:44Z,42.805,6.029,13.3023,4.60091,2470.661,2023-6-08T15:34:58Z
2023-06-08T13:35:48Z,42.805,6.029,13.3022,4.60087,2470.624,2023-6-08T15:38:01Z
2023-06-08T13:38:51Z,42.805,6.029,13.3024,4.60090,2470.646,2023-6-08T15:41:04Z
2023-06-08T13:41:54Z,42.805,6.029,13.3021,4.60081,2470.684,2023-6-08T15:44:07Z
2023-06-08T13:44:57Z,42.805,6.029,13.3021,4.60085,2470.67,2023-6-08T15:47:10Z
2023-06-08T13:48:00Z,42.805,6.029,13.3028,4.60084,2470.646,2023-6-08T15:50:13Z
2023-06-08T13:51:03Z,42.805,6.029,13.3022,4.60084,2470.661,2023-6-08T15:53:17Z
2023-06-08T13:54:06Z,42.805,6.029,13.3025,4.60079,2470.661,2023-6-08T15:56:20Z
2023-06-08T13:57:09Z,42.805,6.029,13.3021,4.60081,2470.646,2023-6-08T15:59:23Z
2023-06-08T14:00:12Z,42.805,6.029,13.3024,4.60085,2470.624,2023-6-08T16:02:26Z
2023-06-08T14:03:15Z,42.805,6.029,13.3021,4.60087,2470.624,2023-6-08T16:05:29Z
2023-06-08T14:06:18Z,42.805,6.029,13.3022,4.60082,2470.614,2023-6-08T16:08:32Z
2023-06-08T14:09:21Z,42.805,6.029,13.3021,4.60097,2470.661,2023-6-08T16:11:35Z
2023-06-08T14:12:25Z,42.805,6.029,13.3023,4.60092,2470.637,2023-6-08T16:14:38Z
2023-06-08T14:15:28Z,42.805,6.029,13.3022,4.60100,2470.624,2023-6-08T16:17:41Z
2023-06-08T14:18:31Z,42.805,6.029,13.3024,4.60099,2470.624,2023-6-08T16:20:44Z
2023-06-08T14:21:34Z,42.805,6.029,13.3020,4.60109,2470.6,2023-6-08T16:23:47Z
2023-06-08T14:24:37Z,42.805,6.029,13.3023,4.60103,2470.661,2023-6-08T16:26:50Z
2023-06-08T14:27:40Z,42.805,6.029,13.3024,4.60099,2470.614,2023-6-08T16:29:53Z
2023-06-08T14:30:42Z,42.805,6.029,13.3025,4.60115,2470.6,2023-6-08T16:32:55Z
2023-06-08T14:33:45Z,42.805,6.029,13.3024,4.60094,2470.6,2023-6-08T16:35:58Z
2023-06-08T14:36:48Z,42.805,6.029,13.3024,4.60097,2470.624,2023-6-08T16:39:01Z
2023-06-08T14:39:51Z,42.805,6.029,13.3023,4.60090,2470.637,2023-6-08T16:42:04Z
2023-06-08T14:42:54Z,42.805,6.029,13.3025,4.60095,2470.614,2023-6-08T16:45:07Z
2023-06-08T14:45:57Z,42.805,6.029,13.3025,4.60091,2470.614,2023-6-08T16:48:10Z
2023-06-08T14:49:00Z,42.805,6.029,13.3021,4.60094,2470.6,2023-6-08T16:51:14Z
2023-06-08T14:52:03Z,42.805,6.029,13.3021,4.60096,2470.624,2023-6-08T16:54:17Z
2023-06-08T14:55:06Z,42.805,6.029,13.3023,4.60092,2470.624,2023-6-08T16:57:20Z
2023-06-08T14:58:09Z,42.805,6.029,13.3024,4.60094,2470.624,2023-6-08T17:00:23Z
2023-06-08T15:01:12Z,42.805,6.029,13.3022,4.60090,2470.624,2023-6-08T17:03:26Z
2023-06-08T15:04:15Z,42.805,6.029,13.3020,4.60090,2470.624,2023-6-08T17:06:29Z
2023-06-08T15:07:18Z,42.805,6.029,13.3024,4.60092,2470.6,2023-6-08T17:09:32Z
2023-06-08T15:10:22Z,42.805,6.029,13.3021,4.60091,2470.624,2023-6-08T17:12:35Z